Regional Weather Roundup
Issued by NWS Wakefield, VA

Home | Current Version | Previous Version | Text Only | Print | Product List | Glossary Off
Versions: 1 2 3 4 5 6 7 8 9 10 11 12 13 14 15 16 17 18 19 20 21 22 23 24 25 26 27 28 29 30 31 32 33 34 35 36 37 38 39 40 41 42 43 44 45 46 47 48 49 50

000
ASUS41 KAKQ 211510
RWRAKQ

REGIONAL WEATHER ROUNDUP
NATIONAL WEATHER SERVICE WAKEFIELD VA
1000 AM EST SUN DEC 21 2014

Note: "fair" indicates few or no clouds below 12,000 feet with no
significant weather and/or obstructions to visibility. * = Denotes
station may not report precipitation (e.g., rain,snow,etc.),
thunder or fog.

VAZ042-051-052>054-056-211600-
NORTHERN VIRGINIA

CITY           SKY/WX    TMP DP  RH WIND       PRES   REMARKS
WASH NATIONAL  CLOUDY    38  23  55 NE5       30.38R
DULLES         CLOUDY    33  24  69 CALM      30.36R
FORT BELVOIR   CLOUDY    37  24  59 NE3       30.38R
QUANTICO       CLOUDY    38  23  55 NE5       30.39R
FREDERICKSBRG* CLOUDY    37  26  64 CALM      30.37R
STAFFORD*      CLOUDY    36  24  62 CALM      30.41R
WARRENTON      CLOUDY    36  31  80 N3        30.36R
CULPEPER*      CLOUDY    36  27  69 CALM      30.36S
MANASSAS*      CLOUDY    36  28  75 N5        30.37R
LEESBURG*      CLOUDY    34  28  80 CALM      30.36S
WINCHESTER     CLOUDY    34  21  60 CALM      30.34R
FRONT ROYAL*   CLOUDY    32  25  74 CALM      30.33S
LURAY*         CLOUDY    36  28  75 CALM      30.33R
$$

VAZ048-049-060>072-079>083-211600-
CENTRAL AND SOUTH CENTRAL VIRGINIA

CITY           SKY/WX    TMP DP  RH WIND       PRES   REMARKS
RICHMOND       CLOUDY    39  25  57 NE3       30.36R
CHESTERFIELD*  CLOUDY    37  18  44 E5        30.36R
PETERSBURG*    CLOUDY    40  28  63 NE5       30.36R
HANOVER        CLOUDY    37  24  59 CALM      30.37R
TAPPAHANNOCK*  CLOUDY    37  25  62 N3        30.37R
QUINTON*       CLOUDY    37  26  67 NE3       30.36R
CHARLOTTSVILLE CLOUDY    35  25  66 E5        30.33R
GORDONSVILLE*  CLOUDY    35  27  74 E3        30.35R
ORANGE*        CLOUDY    36  28  75 CALM      30.36S
LOUISA*        CLOUDY    37  28  70 CALM      30.34R
BUMPASS*       CLOUDY    36  25  65 CALM      30.35R
FARMVILLE*     CLOUDY    40  31  69 NE5       30.33R
CREWE*         CLOUDY    38  28  68 CALM      30.33S
FORT PICKETT*  CLOUDY    37  28  68 E5        30.34R
CHASE CITY*    CLOUDY    40  33  75 E3        30.33R
CLARKSVILLE*   CLOUDY    39  32  75 E6        30.33R
SOUTH HILL*    CLOUDY    36  29  75 CALM      30.39R
LAWRENCEVILLE* CLOUDY    37  31  77 CALM      30.33R
EMPORIA*       CLOUDY    36  28  75 NE3       30.37R
$$

VAZ088>098-211600-
SOUTHEAST VIRGINIA

CITY           SKY/WX    TMP DP  RH WIND       PRES   REMARKS
NORFOLK        CLOUDY    40  30  67 NE8       30.34R
VIRGINIA BEACH PTSUNNY   42  31  64 N12       30.34R
NORFOLK NAVAL  CLOUDY    43  31  62 NE9       30.36R
WEST POINT*    CLOUDY    40  26  57 CALM      30.38R
SALUDA*        CLOUDY    37  26  65 N5        30.36R
NEWPORT NEWS   CLOUDY    42  30  62 N5        30.35R
LANGLEY AFB    CLOUDY    40  33  76 N6        30.36R
FORT EUSTIS    CLOUDY    39  27  60 E3        30.34R
WILLIAMSBURG*  CLOUDY    43  30  61 CALM      30.37R
HR EXEC AP*    CLOUDY    39  34  81 N6        30.37R
FRANKLIN*      CLOUDY    39  28  65 E6        30.36R
WAKEFIELD      CLOUDY    39  26  59 VRB5      30.35R
$$

VAZ020-022-025-037-045-211600-
WEST CENTRAL AND SOUTHWEST VIRGINIA

CITY           SKY/WX    TMP DP  RH WIND       PRES   REMARKS
STAUNTON*      CLOUDY    34  26  72 CALM      30.32S
WAYNESBORO*    CLOUDY    33  26  77 CALM      30.29S
HOT SPRINGS VA CLOUDY    30  24  77 W5        30.17R
LYNCHBURG      CLOUDY    37  29  72 CALM      30.32R
DANVILLE       CLOUDY    40  34  79 E5        30.32R
SOUTH BOSTON*  CLOUDY    39  33  77 E3        30.33R
MARTINSVILLE   CLOUDY    40  34  80 CALM      30.32S
ROANOKE        CLOUDY    39  28  64 CALM      30.31R
BLACKSBURG     CLOUDY    37  28  69 CALM      30.28R
DUBLIN*        CLOUDY    38  33  81 CALM      30.26S
MARION*        CLOUDY    38  35  87 CALM      30.25R
HILLSVILLE*    CLOUDY    36  33  89 NE3       30.22S
RICHLANDS*     SUNNY     33  28  82 NE3       30.22R
WISE*          SUNNY     34  32  93 E3        30.22S
ABINGDON*      SUNNY     42  37  83 E3        30.23S
$$

MDZ021>025-VAZ099-100-211600-
SOUTHERN MARYLAND AND THE DELMARVA PENINSULA

CITY           SKY/WX    TMP DP  RH WIND       PRES   REMARKS
PATUXENT RIVER CLOUDY    37  28  70 N6        30.36R
BAY BRIDGE APT   N/A     36  25  64 NW5       30.38R
LEONARDTOWN    CLOUDY    36  28  75 CALM      30.37R
DOVER          CLOUDY    35  25  67 NW5       30.34R
GEORGETOWN     CLOUDY    34  25  69 NW3       30.36R
EASTON         CLOUDY    36  30  80 CALM      30.40
CAMBRIDGE      MOSUNNY   36  28  75 N6        30.36R
SALISBURY      CLOUDY    37  27  67 CALM      30.35R
OCEAN CITY     CLOUDY    36  28  73 N6        30.35R
WALLOPS ISLAND CLOUDY    36  27  69 N5        30.36R
ACCOMACK*      CLOUDY    36  27  69 CALM      30.35R
$$

NCZ012>017-030>032-211600-
NORTH CENTRAL AND EASTERN NORTH CAROLINA

CITY           SKY/WX    TMP DP  RH WIND       PRES   REMARKS
ROANOKE RAPIDS CLOUDY    36  32  87 E3        30.35R
RALEIGH        CLOUDY    40  34  79 E5        30.33R
ELIZABETH CITY CLOUDY    45  31  58 NE8       30.35R
AHOSKIE*       CLOUDY    37  29  71 NE3       30.36R
EDENTON*       CLOUDY    40  32  72 NE8       30.35R
CURRITUCK*     CLOUDY    41  32  69 N6        30.35R
KILL DEVIL HLS SUNNY     45  35  67 N8        30.32R
MANTEO         SUNNY     45  34  66 NE10      30.34R
CAPE HATTERAS  PTSUNNY   45  39  79 NE10G21   30.30R
TARBORO*       CLOUDY    41  34  75 NE5       30.36R
GOLDSBORO      NOT AVBL
WASHINGTON     CLOUDY    39  33  78 NE5       30.34R
GREENVILLE     CLOUDY    37  34  87 NE3       30.35R
NEW BERN       CLOUDY    41  34  76 N7        30.34R
WILMINGTON     CLOUDY    41  35  79 NE12      30.29R
$$

VAZ048-211600-
ELSEWHERE

CITY           SKY/WX    TMP DP  RH WIND       PRES   REMARKS
HARRISBURG PA  CLOUDY    30  22  72 NW6       30.35R
BALTIMORE      PTSUNNY   34  23  64 CALM      30.36R
ANNAPOLIS      CLOUDY    36  25  64 N5        30.37R
ANDREWS AFB    CLOUDY    34  23  64 CALM      30.36R
PHILADELPHIA   MOSUNNY   36  20  52 NW6       30.36R
HENDERSON NC   CLOUDY    39  32  75 E6        30.32S
GREENSBORO     CLOUDY    41  35  79 E3        30.29R
ROCKY MOUNT    CLOUDY    39  33  79 NE5       30.35R
$$

VAZ100-211600-
MARINE

STATION/POSITION TIME  TEMP    WIND        PRES    WAVE   SWELL
                       AIR SEA DIR/SP/G            HT/PER HT/PER
                 (UTC) (F)     (DEG/KT/KT) (MB)    (FT/S) (FT/S)
CAPE MAY NJ      1500   35 43  360/  2/  4 1027.1S
LEWES DE         1500   35 42  320/  8/ 10 1027.6R
15NM E FENWICK I 1500   37 45              1027.4R   2/11
OCEAN-CITY-INLET 1500   35 44  360/  5/  6 1027.3S
WACHAPREAGUE VA  1500   36 40   30/  2/  6 1027.8R
THOMAS POINT MD  1500   35 40  360/  6/  7 1029.4R
GOOSES REEF MD   1500   36     VRB  8/  8  1027.3R   0
COVE POINT MD    1500   35      40/  5/  6 1027.9R
SOLOMONS ISLAND  1500      42                N/A
BISHOPS HEAD MD  1500   36 36   30/  5/  6 1027.2R
POTOMAC MD       1500   38 42   30/  4/  6 1027.1R   0
CAMBRIDGE MD     1500   35 40   10/  4/  5 1027.8S
LEWISETTA VA     1500   37 41   10/  4/  6 1027.8R
RAPPAHANNOCK LGT 1500           20/  8/  9 1028.0S
STINGRAY PT      1500   38 43   10/  8/ 10 1028.1R   1
YORK RVR RNG VA  1500   39      20/  8/ 10 1027.1R
YORKTOWN VA      1500   38 45   20/  3/  5 1027.5S
JAMESTOWN VA     1500   37 46  100/  2/  4   N/A     0
DOMINION TERM VA 1500   39      50/  4/  6 1027.6S
KIPTOPEKE VA     1500      48   70/  5/  9   N/A
CHES BAY BRIDGE  1500   38 46   20/  7/ 10 1027.1S
CAPE HENRY VA    1500   39      20/  8/ 10 1026.3S
CHESAPEAKE LGHT  1400   40      20/ 10/ 11 1027.6R
WILLOUBY STN VA  1500   39      60/  7/  8 1027.9S
S CRANEY ISL VA  1500           50/  8/ 10 1027.3R
CAPE HENRY BUOY  1400      49                N/A     2/ 3
1ST LANDING BUOY 1500   39 46   40/ 10/ 12 1027.2R   1/ 3
CAPE CHARLES BUO 1400      47                N/A     2/ 3   2/11
64NM E OF VA BCH 1500   45 54   20/ 12/ 14 1026.2R   2/10   2/10
DUCK PIER NC     1500   43 45   10/ 10/ 14 1026.1R
44100 DUCK FRF   1500      51                N/A     3/ 4
44056 DUCK FRF   1400      46                N/A     2/ 4
OREGON INLET NC  1500   45 47   20/  9/ 12 1026.7R
HATTERAS NC      1500   45 49   30/ 11/ 15 1026.2R
DIAMOND SHLS NC  1500   53                 1025.3R   4/ 5
CAPE LOOKOUT NC  1400   44      20/ 13/ 17 1025.1R
$$



USA.gov is the U.S. government's official web portal to all federal, state and local government web resources and services.